Flag for Germany Weather past 2 weeks in Langenhagen, Lower Saxony, Germany

Now
45 °F

Passing clouds.


Feels Like: 38 °F
Forecast: 38 / 43 °F
Wind: 13 mph from West

Location: Hannover

Current Time: Dec 19, 2014 at 5:51:40 PM

Latest Report: Dec 19, 2014 at 5:20 PM


Visibility: N/A

Pressure: 29.80 "Hg

Humidity: 76%

Dew point: 37 °F

Location of LangenhagenLocation

Historic Weather in Langenhagen — Graph

°F

Langenhagen temperature yesterday

Maximum temperature yesterday: 54 °F (at 2:20 PM)
Minimum temperature yesterday: 48 °F (at 12:20 AM)
Average temperature yesterday: 51 °F

Past Weeks' High & Low Weather Summary

 TemperatureHumidityPressure
High54 °F (Dec 18, 2:20 PM)100% (Dec 4, 4:20 PM)30.36 "Hg (Dec 4, 4:20 PM)
Low32 °F (Dec 4, 4:20 PM)66% (Dec 7, 4:20 PM)29.33 "Hg (Dec 12, 12:50 PM)
Average41 °F88%29.89 "Hg
* Reported Dec 4 4:20 PM — Dec 19 4:50 PM, Langenhagen, Weather by CustomWeather, © 2014

Note: Actual official high and low records may vary slightly from our data, if they occured in-between our weather recording intervals... More about our weather records

Advertising

Langenhagen weather history for previous 24 hours

 ConditionsComfort  
Time TempWeatherWind HumidityBarometerVisibility
4:50 PM
Dec 19
45 °FPassing clouds.15 mph76%29.80 "HgN/A
4:20 PM45 °FPartly cloudy.15 mph81%29.77 "HgN/A
3:50 PM46 °FPartly sunny.13 mph87%29.77 "HgN/A
3:20 PM46 °FPartly sunny.20 mph87%29.74 "HgN/A
2:50 PM46 °FPartly sunny.15 mph93%29.74 "HgN/A
2:20 PM48 °FPartly sunny.17 mph87%29.71 "HgN/A
1:50 PM48 °FMostly cloudy.17 mph94%29.71 "HgN/A
1:20 PM48 °FLight rain. Overcast.17 mph94%29.71 "HgN/A
12:50 PM48 °FLight rain. Overcast.10 mph94%29.71 "HgN/A
12:20 PM50 °FLight rain. Mostly cloudy.17 mph88%29.71 "HgN/A
11:50 AM52 °FLight rain. Broken clouds.21 mph94%29.68 "HgN/A
11:20 AM52 °FLight rain. Broken clouds.20 mph94%29.68 "HgN/A
10:50 AM52 °FRain. Broken clouds.21 mph94%29.68 "HgN/A
10:20 AM52 °FLight rain. Broken clouds.21 mph94%29.68 "HgN/A
9:50 AM52 °FLight rain. Broken clouds.20 mph94%29.68 "HgN/A
9:20 AM52 °FLight rain. Broken clouds.16 mph94%29.68 "HgN/A
8:50 AM52 °FLight rain. Broken clouds.15 mph94%29.68 "HgN/A
8:20 AM52 °FLight rain. Passing clouds.16 mph94%29.68 "Hg4 mi
7:50 AM52 °FLight rain. Passing clouds.15 mph94%29.68 "Hg3 mi
7:20 AM52 °FLight rain. Passing clouds.14 mph94%29.71 "HgN/A
6:50 AM52 °FLight rain. Passing clouds.15 mph94%29.71 "Hg4 mi
6:20 AM54 °FLight rain. Fog.17 mph88%29.71 "Hg3 mi
5:50 AM52 °FLight rain. Fog.17 mph94%29.74 "Hg2 mi
5:20 AM52 °FLight rain. Fog.18 mph94%29.74 "Hg2 mi
4:20 AM52 °FLight rain. Fog.16 mph100%29.74 "Hg2 mi
3:50 AM52 °FLight rain. Fog.17 mph100%29.74 "Hg2 mi
3:20 AM52 °FLight rain. Fog.17 mph100%29.74 "Hg2 mi
2:50 AM52 °FLight rain. Fog.18 mph100%29.77 "Hg2 mi
2:20 AM52 °FLight rain. Fog.17 mph100%29.74 "Hg2 mi
1:50 AM52 °FLight rain. Fog.17 mph100%29.74 "Hg2 mi
1:20 AM52 °FLight rain. Fog.17 mph100%29.74 "Hg2 mi
12:50 AM52 °FLight rain. Fog.18 mph100%29.74 "Hg3 mi
12:20 AM52 °FLight rain. Fog.16 mph100%29.74 "Hg2 mi
11:50 PM
Dec 18
52 °FLight rain. Fog.18 mph100%29.74 "Hg2 mi
11:20 PM54 °FLight rain. Passing clouds.17 mph94%29.74 "Hg5 mi
10:50 PM54 °FLight rain. Passing clouds.18 mph94%29.74 "Hg4 mi
10:20 PM54 °FLight rain. Passing clouds.16 mph94%29.74 "Hg4 mi
9:50 PM54 °FLight rain. Fog.15 mph94%29.74 "Hg2 mi
9:20 PM54 °FLight rain. Fog.18 mph94%29.74 "Hg2 mi
8:50 PM54 °FLight rain. Passing clouds.16 mph94%29.74 "Hg4 mi
8:20 PM54 °FLight rain. Passing clouds.16 mph94%29.74 "Hg5 mi
7:50 PM54 °FLight rain. Passing clouds.17 mph94%29.71 "Hg5 mi
7:20 PM54 °FLight rain. Passing clouds.17 mph94%29.71 "Hg3 mi
6:50 PM54 °FLight rain. Passing clouds.17 mph94%29.71 "Hg3 mi
6:20 PM54 °FPassing clouds.16 mph94%29.71 "Hg4 mi
5:50 PM54 °FPassing clouds.16 mph94%29.71 "Hg5 mi
5:20 PM54 °FPassing clouds.15 mph94%29.71 "HgN/A
Weather by CustomWeather, © 2014

See weather overviewHow to use our weather pages